Time,TemperatureF,DewpointF,PressureIn,WindDirection,WindDirectionDegrees,WindSpeedMPH,WindSpeedGustMPH,Humidity,HourlyPrecipIn,Conditions,Clouds,dailyrainin,SoftwareType,DateUTC
2013-01-03 00:00:00,25.0,18.0,30.06,SSW,210,14.0,-999.0,74,-99.99,,,-99.99,,2013-01-03 05:00:00,
2013-01-03 00:22:00,25.0,18.0,30.06,SSW,210,14.0,-999.0,74,-99.99,,,-99.99,,2013-01-03 05:22:00,
2013-01-03 00:33:00,25.0,18.0,30.06,SSW,210,14.0,-999.0,74,-99.99,,,-99.99,,2013-01-03 05:33:00,
2013-01-03 00:42:00,25.0,18.0,30.06,SSW,210,14.0,-999.0,74,-99.99,,,-99.99,,2013-01-03 05:42:00,
2013-01-03 00:52:00,25.0,18.0,30.06,SSW,210,14.0,-999.0,74,-99.99,,,-99.99,,2013-01-03 05:52:00,
2013-01-03 01:00:00,23.0,18.0,30.05,South,190,13.0,-999.0,79,-99.99,,,-99.99,,2013-01-03 06:00:00,
2013-01-03 01:22:00,23.0,18.0,30.05,South,190,13.0,-999.0,79,-99.99,,,-99.99,,2013-01-03 06:22:00,
2013-01-03 01:32:00,23.0,18.0,30.05,South,190,13.0,-999.0,79,-99.99,,,-99.99,,2013-01-03 06:32:00,
2013-01-03 01:42:00,23.0,18.0,30.05,South,190,13.0,-999.0,79,-99.99,,,-99.99,,2013-01-03 06:42:00,
2013-01-03 01:52:00,23.0,18.0,30.05,South,190,13.0,-999.0,79,-99.99,,,-99.99,,2013-01-03 06:52:00,
2013-01-03 02:00:00,24.0,19.0,30.03,South,180,20.0,-999.0,81,-99.99,,,-99.99,,2013-01-03 07:00:00,
2013-01-03 02:22:00,24.0,19.0,30.03,South,180,20.0,-999.0,81,-99.99,,,-99.99,,2013-01-03 07:22:00,
2013-01-03 02:32:00,24.0,19.0,30.03,South,180,20.0,-999.0,81,-99.99,,,-99.99,,2013-01-03 07:32:00,
2013-01-03 02:42:00,24.0,19.0,30.03,South,180,20.0,-999.0,81,-99.99,,,-99.99,,2013-01-03 07:42:00,
2013-01-03 02:52:00,24.0,19.0,30.03,South,180,20.0,-999.0,81,-99.99,,,-99.99,,2013-01-03 07:52:00,
2013-01-03 03:00:00,24.0,20.0,30.00,South,170,14.0,-999.0,84,-99.99,,,-99.99,,2013-01-03 08:00:00,
2013-01-03 03:22:00,24.0,20.0,30.00,South,170,14.0,-999.0,84,-99.99,,,-99.99,,2013-01-03 08:22:00,
2013-01-03 03:32:00,24.0,20.0,30.00,South,170,14.0,-999.0,84,-99.99,,,-99.99,,2013-01-03 08:32:00,
2013-01-03 03:42:00,24.0,20.0,30.00,South,170,14.0,-999.0,84,-99.99,,,-99.99,,2013-01-03 08:42:00,
2013-01-03 03:52:00,24.0,20.0,30.00,South,170,14.0,-999.0,84,-99.99,,,-99.99,,2013-01-03 08:52:00,
2013-01-03 04:00:00,27.0,24.0,29.97,SW,220,5.0,-999.0,89,-99.99,,,-99.99,,2013-01-03 09:00:00,
2013-01-03 04:22:00,27.0,24.0,29.97,SW,220,5.0,-999.0,89,-99.99,,,-99.99,,2013-01-03 09:22:00,
2013-01-03 04:32:00,27.0,24.0,29.97,SW,220,5.0,-999.0,89,-99.99,,,-99.99,,2013-01-03 09:32:00,
2013-01-03 04:42:00,27.0,24.0,29.97,SW,220,5.0,-999.0,89,-99.99,,,-99.99,,2013-01-03 09:42:00,
2013-01-03 04:52:00,27.0,24.0,29.97,SW,220,5.0,-999.0,89,-99.99,,,-99.99,,2013-01-03 09:52:00,
2013-01-03 05:00:00,25.0,21.0,29.96,NNW,330,9.0,-999.0,85,-99.99,,,-99.99,,2013-01-03 10:00:00,
2013-01-03 05:22:00,25.0,21.0,29.96,NNW,330,9.0,-999.0,85,-99.99,,,-99.99,,2013-01-03 10:22:00,
2013-01-03 05:32:00,25.0,21.0,29.96,NNW,330,9.0,-999.0,85,-99.99,,,-99.99,,2013-01-03 10:32:00,
2013-01-03 05:42:00,25.0,21.0,29.96,NNW,330,9.0,-999.0,85,-99.99,,,-99.99,,2013-01-03 10:42:00,
2013-01-03 05:52:00,25.0,21.0,29.96,NNW,330,9.0,-999.0,85,-99.99,,,-99.99,,2013-01-03 10:52:00,
2013-01-03 06:00:00,24.0,19.0,29.95,NW,310,17.0,-999.0,83,-99.99,,,-99.99,,2013-01-03 11:00:00,
2013-01-03 06:22:00,24.0,19.0,29.95,NW,310,17.0,-999.0,83,-99.99,,,-99.99,,2013-01-03 11:22:00,
2013-01-03 06:32:00,24.0,19.0,29.95,NW,310,17.0,-999.0,83,-99.99,,,-99.99,,2013-01-03 11:32:00,
2013-01-03 06:42:00,24.0,19.0,29.95,NW,310,17.0,-999.0,83,-99.99,,,-99.99,,2013-01-03 11:42:00,
2013-01-03 06:52:00,24.0,19.0,29.95,NW,310,17.0,-999.0,83,-99.99,,,-99.99,,2013-01-03 11:52:00,
2013-01-03 07:00:00,24.0,18.0,29.96,WNW,300,17.0,-999.0,77,-99.99,,,-99.99,,2013-01-03 12:00:00,
2013-01-03 07:22:00,24.0,18.0,29.96,WNW,300,17.0,-999.0,77,-99.99,,,-99.99,,2013-01-03 12:22:00,
2013-01-03 07:32:00,24.0,18.0,29.96,WNW,300,17.0,-999.0,77,-99.99,,,-99.99,,2013-01-03 12:32:00,
2013-01-03 07:42:00,24.0,18.0,29.96,WNW,300,17.0,-999.0,77,-99.99,,,-99.99,,2013-01-03 12:42:00,
2013-01-03 07:52:00,24.0,18.0,29.96,WNW,300,17.0,-999.0,77,-99.99,,,-99.99,,2013-01-03 12:52:00,
2013-01-03 08:00:00,24.0,18.0,29.97,WNW,290,20.0,-999.0,77,-99.99,,,-99.99,,2013-01-03 13:00:00,
2013-01-03 08:22:00,24.0,18.0,29.97,WNW,290,20.0,-999.0,77,-99.99,,,-99.99,,2013-01-03 13:22:00,
2013-01-03 08:32:00,24.0,18.0,29.97,WNW,290,20.0,-999.0,77,-99.99,,,-99.99,,2013-01-03 13:32:00,
2013-01-03 08:42:00,24.0,18.0,29.97,WNW,290,20.0,-999.0,77,-99.99,,,-99.99,,2013-01-03 13:42:00,
2013-01-03 08:52:00,24.0,18.0,29.97,WNW,290,20.0,-999.0,77,-99.99,,,-99.99,,2013-01-03 13:52:00,
2013-01-03 09:00:00,26.0,20.0,29.99,WNW,290,17.0,-999.0,77,-99.99,,,-99.99,,2013-01-03 14:00:00,
2013-01-03 09:22:00,26.0,20.0,29.99,WNW,290,17.0,-999.0,77,-99.99,,,-99.99,,2013-01-03 14:22:00,
2013-01-03 09:32:00,26.0,20.0,29.99,WNW,290,17.0,-999.0,77,-99.99,,,-99.99,,2013-01-03 14:32:00,
2013-01-03 09:42:00,26.0,20.0,29.99,WNW,290,17.0,-999.0,77,-99.99,,,-99.99,,2013-01-03 14:42:00,
2013-01-03 09:53:00,26.0,20.0,29.99,WNW,290,17.0,-999.0,77,-99.99,,,-99.99,,2013-01-03 14:53:00,
2013-01-03 10:00:00,26.0,21.0,30.00,WNW,300,22.0,-999.0,81,-99.99,,,-99.99,,2013-01-03 15:00:00,
2013-01-03 10:22:00,26.0,21.0,30.00,WNW,300,22.0,-999.0,81,-99.99,,,-99.99,,2013-01-03 15:22:00,
2013-01-03 10:32:00,26.0,21.0,30.00,WNW,300,22.0,-999.0,81,-99.99,,,-99.99,,2013-01-03 15:32:00,
2013-01-03 10:42:00,26.0,21.0,30.00,WNW,300,22.0,-999.0,81,-99.99,,,-99.99,,2013-01-03 15:42:00,
2013-01-03 10:52:00,26.0,21.0,30.00,WNW,300,22.0,-999.0,81,-99.99,,,-99.99,,2013-01-03 15:52:00,
2013-01-03 11:00:00,25.0,21.0,30.03,WNW,300,24.0,-999.0,84,-99.99,,,-99.99,,2013-01-03 16:00:00,
2013-01-03 11:22:00,25.0,21.0,30.03,WNW,300,24.0,-999.0,84,-99.99,,,-99.99,,2013-01-03 16:22:00,
2013-01-03 11:32:00,25.0,21.0,30.03,WNW,300,24.0,-999.0,84,-99.99,,,-99.99,,2013-01-03 16:32:00,
2013-01-03 11:42:00,25.0,21.0,30.03,WNW,300,24.0,-999.0,84,-99.99,,,-99.99,,2013-01-03 16:42:00,
2013-01-03 11:52:00,25.0,21.0,30.03,WNW,300,24.0,-999.0,84,-99.99,,,-99.99,,2013-01-03 16:52:00,
2013-01-03 12:00:00,27.0,22.0,30.05,WNW,300,21.0,-999.0,81,-99.99,,,-99.99,,2013-01-03 17:00:00,
2013-01-03 12:22:00,27.0,22.0,30.05,WNW,300,21.0,-999.0,81,-99.99,,,-99.99,,2013-01-03 17:22:00,
2013-01-03 12:32:00,27.0,22.0,30.05,WNW,300,21.0,-999.0,81,-99.99,,,-99.99,,2013-01-03 17:32:00,
2013-01-03 12:42:00,27.0,22.0,30.05,WNW,300,21.0,-999.0,81,-99.99,,,-99.99,,2013-01-03 17:42:00,
2013-01-03 12:52:00,27.0,22.0,30.05,WNW,300,21.0,-999.0,81,-99.99,,,-99.99,,2013-01-03 17:52:00,
2013-01-03 13:00:00,26.0,20.0,30.06,WNW,290,20.0,-999.0,77,-99.99,,,-99.99,,2013-01-03 18:00:00,
2013-01-03 13:22:00,26.0,20.0,30.06,WNW,290,20.0,-999.0,77,-99.99,,,-99.99,,2013-01-03 18:22:00,
2013-01-03 13:32:00,26.0,20.0,30.06,WNW,290,20.0,-999.0,77,-99.99,,,-99.99,,2013-01-03 18:32:00,
2013-01-03 13:42:00,26.0,20.0,30.06,WNW,290,20.0,-999.0,77,-99.99,,,-99.99,,2013-01-03 18:42:00,
2013-01-03 13:52:00,26.0,20.0,30.06,WNW,290,20.0,-999.0,77,-99.99,,,-99.99,,2013-01-03 18:52:00,
2013-01-03 14:00:00,26.0,20.0,30.05,West,280,22.0,-999.0,77,-99.99,,,-99.99,,2013-01-03 19:00:00,
2013-01-03 15:00:00,26.0,19.0,30.06,West,270,23.0,-999.0,74,-99.99,,,-99.99,,2013-01-03 20:00:00,
2013-01-03 15:22:00,26.0,19.0,30.06,West,270,23.0,-999.0,74,-99.99,,,-99.99,,2013-01-03 20:22:00,
2013-01-03 15:32:00,26.0,19.0,30.06,West,270,23.0,-999.0,74,-99.99,,,-99.99,,2013-01-03 20:32:00,
2013-01-03 15:42:00,26.0,19.0,30.06,West,270,23.0,-999.0,74,-99.99,,,-99.99,,2013-01-03 20:42:00,
2013-01-03 15:53:00,26.0,19.0,30.06,West,270,23.0,-999.0,74,-99.99,,,-99.99,,2013-01-03 20:53:00,
2013-01-03 16:00:00,26.0,19.0,30.09,West,270,22.0,-999.0,73,-99.99,,,-99.99,,2013-01-03 21:00:00,
2013-01-03 16:22:00,26.0,19.0,30.09,West,270,22.0,-999.0,73,-99.99,,,-99.99,,2013-01-03 21:22:00,
2013-01-03 16:33:00,26.0,19.0,30.09,West,270,22.0,-999.0,73,-99.99,,,-99.99,,2013-01-03 21:33:00,
2013-01-03 16:44:00,26.0,19.0,30.09,West,270,22.0,-999.0,73,-99.99,,,-99.99,,2013-01-03 21:44:00,
2013-01-03 16:52:00,26.0,19.0,30.09,West,270,22.0,-999.0,73,-99.99,,,-99.99,,2013-01-03 21:52:00,
2013-01-03 17:00:00,26.0,18.0,30.13,West,270,18.0,-999.0,73,-99.99,,,-99.99,,2013-01-03 22:00:00,
2013-01-03 17:22:00,26.0,18.0,30.13,West,270,18.0,-999.0,73,-99.99,,,-99.99,,2013-01-03 22:22:00,
2013-01-03 17:32:00,26.0,18.0,30.13,West,270,18.0,-999.0,73,-99.99,,,-99.99,,2013-01-03 22:32:00,
2013-01-03 17:42:00,26.0,18.0,30.13,West,270,18.0,-999.0,73,-99.99,,,-99.99,,2013-01-03 22:42:00,
2013-01-03 17:52:00,26.0,18.0,30.13,West,270,18.0,-999.0,73,-99.99,,,-99.99,,2013-01-03 22:52:00,
2013-01-03 18:00:00,25.0,18.0,30.15,West,270,17.0,-999.0,74,-99.99,,,-99.99,,2013-01-03 23:00:00,
2013-01-03 18:22:00,25.0,18.0,30.15,West,270,17.0,-999.0,74,-99.99,,,-99.99,,2013-01-03 23:22:00,
2013-01-03 18:32:00,25.0,18.0,30.15,West,270,17.0,-999.0,74,-99.99,,,-99.99,,2013-01-03 23:32:00,
2013-01-03 18:42:00,25.0,18.0,30.15,West,270,17.0,-999.0,74,-99.99,,,-99.99,,2013-01-03 23:42:00,
2013-01-03 18:52:00,25.0,18.0,30.15,West,270,17.0,-999.0,74,-99.99,,,-99.99,,2013-01-03 23:52:00,
2013-01-03 20:00:00,26.0,20.0,30.16,West,260,25.0,-999.0,76,-99.99,,,-99.99,,2013-01-04 01:00:00,
2013-01-03 20:22:00,26.0,20.0,30.16,West,260,25.0,-999.0,76,-99.99,,,-99.99,,2013-01-04 01:22:00,
2013-01-03 20:32:00,26.0,20.0,30.16,West,260,25.0,-999.0,76,-99.99,,,-99.99,,2013-01-04 01:32:00,
2013-01-03 20:42:00,26.0,20.0,30.16,West,260,25.0,-999.0,76,-99.99,,,-99.99,,2013-01-04 01:42:00,
2013-01-03 20:52:00,26.0,20.0,30.16,West,260,25.0,-999.0,76,-99.99,,,-99.99,,2013-01-04 01:52:00,
2013-01-03 21:00:00,24.0,18.0,30.17,West,260,25.0,-999.0,77,-99.99,,,-99.99,,2013-01-04 02:00:00,
2013-01-03 21:22:00,24.0,18.0,30.17,West,260,25.0,-999.0,77,-99.99,,,-99.99,,2013-01-04 02:22:00,
2013-01-03 21:32:00,24.0,18.0,30.17,West,260,25.0,-999.0,77,-99.99,,,-99.99,,2013-01-04 02:32:00,
2013-01-03 21:42:00,24.0,18.0,30.17,West,260,25.0,-999.0,77,-99.99,,,-99.99,,2013-01-04 02:42:00,
2013-01-03 21:52:00,24.0,18.0,30.17,West,260,25.0,-999.0,77,-99.99,,,-99.99,,2013-01-04 02:52:00,
2013-01-03 22:00:00,24.0,17.0,30.16,West,260,24.0,-999.0,75,-99.99,,,-99.99,,2013-01-04 03:00:00,
2013-01-03 22:22:00,24.0,17.0,30.16,West,260,24.0,-999.0,75,-99.99,,,-99.99,,2013-01-04 03:22:00,
2013-01-03 22:32:00,24.0,17.0,30.16,West,260,24.0,-999.0,75,-99.99,,,-99.99,,2013-01-04 03:32:00,
2013-01-03 22:42:00,24.0,17.0,30.16,West,260,24.0,-999.0,75,-99.99,,,-99.99,,2013-01-04 03:42:00,
2013-01-03 22:52:00,24.0,17.0,30.16,West,260,24.0,-999.0,75,-99.99,,,-99.99,,2013-01-04 03:52:00,
2013-01-03 23:00:00,22.0,16.0,30.17,WSW,250,24.0,-999.0,78,-99.99,,,-99.99,,2013-01-04 04:00:00,
2013-01-03 23:22:00,22.0,16.0,30.17,WSW,250,24.0,-999.0,78,-99.99,,,-99.99,,2013-01-04 04:22:00,
2013-01-03 23:32:00,22.0,16.0,30.17,WSW,250,24.0,-999.0,78,-99.99,,,-99.99,,2013-01-04 04:32:00,
2013-01-03 23:42:00,22.0,16.0,30.17,WSW,250,24.0,-999.0,78,-99.99,,,-99.99,,2013-01-04 04:42:00,
2013-01-03 23:52:00,22.0,16.0,30.17,WSW,250,24.0,-999.0,78,-99.99,,,-99.99,,2013-01-04 04:52:00,